Content
SEND FEEDBACK

Daily
Averages
Monthly
Summary
Finland

KUOPIO, FINLAND


Home > Europe > Finland
Elevation: 322 feet     Latitude: 63 00N     Longitude: 027 47E

WEATHER
 
SELECT A DAY
Number of Records: 290,348;   Date Range: 10/1/98 - 12/24/14
 
SHARE

PRINT THIS DATA

[ ← Previous Day ]
WEATHER ALMANAC - JANUARY 23, 2013
[ Next Day → ]
[ °C ]   °F
Weather ElementAverageHighLow
Temperature11.7 °F19.4 °F (12:50 am)6.8 °F (8:20 am)
Dewpoint9.6 °F17.6 °F (12:50 am)5 °F (8:20 am)
Humidity90.9 %100 % (4:20 am)80 % (8:00 pm)
Barometer29.66 in29.73 in (8:00 am)29.56 in (10:50 pm)
Wind Speed7.5 mph15 mph (12:50 am)
Weather ElementAverage
Visibility10.7 mi
Wind DirectionWSW (233.4 °)

Weather ElementTotal
Precipitation---
Heating Degree Days51.9 (Base 65)
Averaged from 50 records on January 23, 2013
WEATHER CONDITIONS BREAKOUT
WIND DIRECTION BREAKOUT
WEATHER BY HOUR - JANUARY 23, 2013
[ °C ]   °F
Local TimeTemperatureDewpointHumidityBarometerVisibilityWind DirectionWind SpeedGust SpeedPrecipitationEventsConditions
12:50 AM19.4 °F17.6 °F93 %29.65 in6.2 miWNW (300°)15.0 mphPartly Cloudy
1:20 AM19.4 °F17.6 °F93 %29.65 in6.2 miNW (310°)13.8 mphMostly Cloudy
1:50 AM17.6 °F15.8 °F93 %29.68 in6.2 miNW (310°)13.8 mphMostly Cloudy
2:00 AM17.0 °F15.0 °F85 %29.72 in31.0 miNW (320°)8.9 mphClear
2:20 AM15.8 °F14.0 °F93 %29.68 in6.2 miNW (310°)12.7 mphPartly Cloudy
2:50 AM15.8 °F14.0 °F93 %29.68 inNW (310°)10.4 mphClear
3:20 AM15.8 °F14.0 °F93 %29.68 inNW (310°)9.2 mphClear
3:50 AM14.0 °F12.2 °F93 %29.68 inNW (310°)4.6 mphClear
4:20 AM12.2 °F12.2 °F100 %29.68 inWest (280°)4.6 mphClear
4:50 AM12.2 °F10.4 °F92 %29.68 inWest (280°)5.8 mphClear
5:20 AM12.2 °F10.4 °F92 %29.68 in6.2 miWest (280°)6.9 mphMostly Cloudy
5:50 AM12.2 °F10.4 °F92 %29.71 in6.2 miVariable2.3 mphMostly Cloudy
6:20 AM10.4 °F8.6 °F92 %29.71 in6.2 miSW (220°)3.5 mphScattered Clouds
6:50 AM10.4 °F8.6 °F92 %29.68 in6.2 miWSW (240°)4.6 mphPartly Cloudy
7:20 AM10.4 °F8.6 °F92 %29.68 inSSW (210°)4.6 mphClear
7:50 AM8.6 °F6.8 °F92 %29.68 inSW (220°)4.6 mphClear
8:00 AM8.0 °F6.0 °F88 %29.73 in25.0 miWSW (250°)8.9 mphClear
8:20 AM6.8 °F5.0 °F92 %29.68 in6.2 miSW (220°)5.8 mphSnowLight Snow
8:50 AM8.6 °F6.8 °F92 %29.68 inSSW (210°)6.9 mphClear
9:20 AM8.6 °F6.8 °F92 %29.68 in6.2 miVariable3.5 mphSnowLight Snow Showers
9:50 AM6.8 °F5.0 °F92 %29.68 in6.2 miVariable3.5 mphSnowLight Snow Showers
10:20 AM8.6 °F6.8 °F92 %29.68 in6.2 miVariable2.3 mphSnowLight Snow Showers
10:50 AM8.6 °F6.8 °F92 %29.68 in6.2 miVariable1.2 mphSnowLight Snow Grains
11:20 AM10.4 °F8.6 °F92 %29.68 in6.2 miWest (260°)4.6 mphSnowLight Snow Showers
11:50 AM10.4 °F8.6 °F92 %29.68 inSW (220°)5.8 mphClear
12:20 PM10.4 °F8.6 °F92 %29.68 inWSW (240°)5.8 mphClear
12:50 PM12.2 °F10.4 °F92 %29.68 inWest (260°)5.8 mphClear
1:20 PM12.2 °F10.4 °F92 %29.68 inWest (270°)9.2 mphClear
1:50 PM12.2 °F10.4 °F92 %29.68 inWest (280°)8.1 mphClear
2:00 PM13.0 °F11.0 °F87 %29.71 in25.0 miSW (230°)2.2 mphClear
2:20 PM12.2 °F10.4 °F92 %29.65 inWSW (240°)6.9 mphClear
2:50 PM12.2 °F10.4 °F92 %29.65 inWSW (250°)9.2 mphClear
3:20 PM12.2 °F10.4 °F92 %29.65 inWest (270°)5.8 mphClear
3:50 PM10.4 °F10.4 °F100 %29.65 inWSW (250°)8.1 mphClear
4:20 PM12.2 °F10.4 °F92 %29.65 inWSW (250°)9.2 mphClear
4:50 PM12.2 °F10.4 °F92 %29.65 inWSW (250°)10.4 mphClear
5:20 PM12.2 °F8.6 °F85 %29.65 inWest (260°)8.1 mphClear
5:50 PM12.2 °F10.4 °F92 %29.65 in4.3 miWest (260°)9.2 mph
6:20 PM12.2 °F8.6 °F85 %29.62 inWest (260°)10.4 mphClear
6:50 PM10.4 °F8.6 °F92 %29.62 inWest (260°)8.1 mphClear
7:20 PM10.4 °F8.6 °F92 %29.62 inWSW (250°)9.2 mphClear
7:50 PM12.2 °F8.6 °F85 %29.62 inWSW (250°)8.1 mphClear
8:00 PM11.0 °F8.0 °F80 %29.66 in31.0 miWest (280°)6.7 mphClear
8:20 PM12.2 °F8.6 °F85 %29.62 inWSW (250°)6.9 mphClear
8:50 PM10.4 °F6.8 °F85 %29.59 inWSW (240°)10.4 mphClear
9:20 PM8.6 °F6.8 °F92 %29.59 inWSW (240°)8.1 mphClear
9:50 PM8.6 °F6.8 °F92 %29.59 inWSW (240°)9.2 mphClear
10:20 PM8.6 °F6.8 °F92 %29.59 inWSW (240°)9.2 mphClear
10:50 PM10.4 °F6.8 °F85 %29.56 inWSW (240°)10.4 mphClear
11:20 PM12.2 °F8.6 °F85 %29.56 inWSW (240°)10.4 mphClear
Hourly data recorded from EFKU, located miles away from Kuopio, Finland







STORIES FROM OUR PARTNERS